Printer-friendly version
Follow the MPC on Twitter Follow the MPC on Facebook The MPC blog
Minor Planet Center

MPEC 2006-V22 : COMET C/2006 S5 (HILL)

The following Minor Planet Electronic Circular may be linked-to from your own Web pages, but must not otherwise be redistributed electronically.

A form allowing access to any MPEC is at the bottom of this page.


Read MPEC 2006-V21 Read MPEC 2006-V23


M.P.E.C. 2006-V22                                Issued 2006 Nov. 8, 15:51 UT

     The Minor Planet Electronic Circulars contain information on unusual
         minor planets and routine data on comets.  They are published
   on behalf of Commission 20 of the International Astronomical Union by the
          Minor Planet Center, Smithsonian Astrophysical Observatory,
                          Cambridge, MA 02138, U.S.A.

             Prepared using the Tamkin Foundation Computer Network

                              MPC@CFA.HARVARD.EDU
          URL http://cfa-www.harvard.edu/iau/mpc.html  ISSN 1523-6714

                            COMET C/2006 S5 (HILL)

Observations:
    CK06S050  C2006 10 30.78660 00 34 00.33 +17 15 21.1          18.4 N EV022J97
    CK06S050  C2006 10 31.14337 00 33 50.79 +17 13 56.0          18.1 T EV022703
    CK06S050  C2006 10 31.14995 00 33 50.61 +17 13 53.9          18.0 T EV022703
    CK06S050  C2006 10 31.15659 00 33 50.43 +17 13 52.2          17.9 T EV022703
    CK06S050  C2006 10 31.16322 00 33 50.18 +17 13 49.7          18.0 T EV022703
    CK06S050  C2006 11 05.89241 00 31 27.89 +16 50 50.7          18.1 N EV022213
    CK06S050  C2006 11 05.89391 00 31 27.84 +16 50 50.1          18.1 N EV022213
    CK06S050  C2006 11 05.89540 00 31 27.80 +16 50 49.7          18.1 N EV022213

Observer details:
213 Observatorio Montcabre.  Observer R. Naves.  Measurer M. Campas.  0.30-m
    f/10 Schmidt-Cassegrain + CCD.
703 Catalina Sky Survey.  Observer R. E. Hill.  Measurers E. C. Beshore,
    E. J. Christensen, A. R. Gibbs, A. D. Grauer, R. E. Hill,
    R. A. Kowalski, S. M. Larson.  0.68-m Schmidt + CCD.
J97 Alginet.  Observer T. Climent.  0.25-m f/5 Schmidt-Cassegrain + CCD.

Orbital elements:
    C/2006 S5 (Hill)
Epoch 2007 Dec. 6.0 TT = JDT 2454440.5
T 2007 Dec.  9.74336 TT                                 MPC
q   2.6297192            (2000.0)            P               Q
z  +0.0101348      Peri.  182.13140     -0.23603771     -0.95633780
 +/-0.0001650      Node   281.55490     +0.89413985     -0.14429147
e   0.9733484      Incl.   10.13187     +0.38052613     -0.25416133
Residuals in seconds of arc
060914 644  0.1+  0.2+    061008 585  1.3-  0.7-    061016 046  0.2+  1.1+
060914 644  1.0+  0.9+    061008 585  1.9-  0.1-    061017 703  0.9-  1.0-
060914 644  1.0+  0.7+    061009 585  0.8+  0.4+    061017 703  0.1-  0.4-
060928 703  1.0-  0.8-    061009 585 (2.1-  0.3+)   061017 703  0.9-  0.9-
060928 703  1.5-  1.2-    061009 104  0.1+  0.4+    061017 703  1.1-  0.6-
060928 703  0.5-  0.2-    061009 104  0.8+  0.3-    061017 585  1.1-  0.6-
060928 703  1.0-  0.2-    061009 104  0.8+  0.3+    061017 585  1.2+  1.1+
060928 703  1.8-  1.4-    061010 644  0.5-  0.3+    061017 585  0.5-  0.3+
060928 703  1.2-  0.8-    061010 644  0.1-  0.2-    061017 585  0.4+  0.4-
060928 703  1.1-  0.8-    061010 644  0.1-  0.2-    061018 H45  0.4+  0.4-
060928 703  1.1-  1.1-    061011 644  0.6-  0.3-    061018 H45  0.3-  0.5-
060928 595  0.0   0.0     061011 644  0.3+  0.1+    061018 H45  0.4+  0.1+
060929 118  0.3+  0.1+    061011 644  0.0   0.1+    061018 H45  0.1+  0.0
060929 118  0.4-  0.8-    061011 673  0.4+  1.0+    061018 H45  0.3-  0.1-
060929 118  0.2+  0.2+    061011 673  0.0   1.1+    061023 644  0.2+  0.3+
060929 595  0.4-  0.2-    061011 673  0.1-  1.0+    061023 644  0.1-  0.1-
060929 673  0.7+  0.6+    061011 673  0.1+  0.8+    061023 644  0.0   0.1+
060929 673  0.9+  0.5+    061012 644  0.4+  0.2+    061023 644  0.1+  0.2+
060929 673  0.4+  0.5+    061012 644  0.5+  0.3+    061023 644  0.1-  0.3+
060929 734  0.1+  0.2-    061012 644  0.1+  0.2-    061023 644  0.4-  0.2-
060929 734  0.3-  0.6-    061012 215  0.2-  0.2+    061025 561  0.2+  0.3+
060929 734  0.1+  0.7-    061012 215  0.2-  0.2+    061025 561  0.1+  0.3+
060929 850  0.2+  0.2-    061012 215  0.3-  0.0     061025 561  0.3+  0.5+
060929 850  0.6+  0.1+    061013 585  1.8+  1.2+    061025 A41  0.4-  0.5-
060929 850  0.7-  0.5-    061013 585  1.4+  0.8-    061025 A41  0.8-  0.8-
060929 850  1.0-  0.0     061013 585  1.7+  0.2-    061026 A41  0.4+  0.1+
060929 H45  0.5-  0.6-    061013 585  1.1+  0.6+    061026 585  0.2+  0.7+
060929 H45  0.3+  0.0     061013 442  1.0-  0.0     061026 585  0.5-  0.1-
060929 H45  0.1-  0.5+    061013 442  0.4+  0.4+    061026 585  0.6-  0.2+
060929 H45  0.2-  0.1-    061013 J70 (5.6+  4.1-)   061026 585  0.9+  0.2+
060929 H45  0.4-  0.1-    061013 J70 (1.4-  3.5-)   061027 204  0.0   0.1+
060929 H45  0.1-  0.2-    061013 J70 (3.9+  1.5+)   061027 204  0.0   0.1+
060929 130  0.6+  0.5-    061014 H45  0.5+  1.6+    061028 213  0.1+  0.2-
060929 130  1.2+  0.6-    061014 H45  0.0   0.3-    061028 213  0.2+  0.4-
060930 118  0.5+  0.2+    061014 H45  0.1-  0.0     061028 213  0.1+  0.4-
060930 118  0.2+  0.4-    061014 H45  0.2+  0.2+    061030 J97  0.3+  0.5-
060930 673  0.9+  0.7+    061014 H45  0.2-  0.0     061031 703  0.6-  0.4-
060930 673  0.7+  0.6+    061015 349  0.5+  0.4-    061031 703  0.6-  0.9-
060930 673  0.6+  0.8+    061015 349  0.3+  0.1-    061031 703  0.6-  1.0-
060930 673  0.7+  0.8+    061015 349  0.1+  0.0     061031 703  1.6-  1.9-
061004 595  0.2+  0.5-    061016 046  0.2-  1.0+    061105 213  0.8+  0.7+
061004 595  0.3-  0.3-    061016 046  0.4-  1.9+    061105 213  0.6+  0.5+
061004 585  1.1+  0.7+    061016 046 (0.3+  2.1+)   061105 213  0.6+  0.4+
061005 585  0.8-  0.1+    061016 046 (0.1+  3.0+)

     The "original" and "future" barycentric values of 1/a are +0.009930
and +0.010421 (+/- 0.000165) AU^-1, respectively.

Brian G. Marsden             (C) Copyright 2006 MPC           M.P.E.C. 2006-V22

Read MPEC 2006-V21 Read MPEC 2006-V23


MPEC number:

Enter an MPEC number in one of the following forms:

  • 1997-B01 (the full form)
  • J97B01 (the packed version of the full form)
  • B01 (the abbreviated form)

Valid HTML 4.01!